Regional Weather Roundup
Issued by NWS

Home | Current Version | Previous Version | Graphics & Text | Print | Product List | Glossary On
Versions: 1 2 3 4 5 6 7 8 9 10 11 12 13 14 15 16 17 18 19 20 21 22 23 24 25 26 27 28 29 30 31 32 33 34 35 36 37 38 39 40 41 42 43 44 45 46 47 48 49 50
000
ASUS45 KCYS 262110
RWRWY

WYOMING REGIONAL WEATHER ROUNDUP
NATIONAL WEATHER SERVICE CHEYENNE WY
300 PM MDT THU MAR 26 2015

NOTE:  "FAIR" INDICATES FEW OR NO CLOUDS BELOW 12,000 FEET
WITH NO SIGNIFICANT WEATHER AND/OR OBSTRUCTIONS TO VISIBILITY.

WYZ001-262200-
YELLOWSTONE NATIONAL PARK

CITY           SKY/WX    TMP DP  RH WIND       PRES   REMARKS
LK YELLOWSTONE   N/A     40  28  62 NW8       30.35F WCI  34
W YELLOWSTONE  NOT AVBL

$$
WYZ002>013-054>058-071-098>099-262200-
NORTHERN WYOMING

CITY           SKY/WX    TMP DP  RH WIND       PRES   REMARKS
JACKSON        SUNNY     43  27  52 CALM      30.34F
CODY           CLOUDY    57  28  33 SW10G22   30.14F
GREYBULL       PTSUNNY   60  28  29 N7        30.11F
WORLAND        FAIR      58  28  32 VRB6      30.13F
SHERIDAN       FAIR      57  33  40 N21G28    30.10F
BUFFALO        PTSUNNY   53  33  46 N17G24    30.12F
GILLETTE       CLOUDY    50  33  52 NW17      30.11F
HULETT         CLOUDY    45  30  57 NW9G21    30.13S
NEWCASTLE      FAIR      50  30  46 N20G26    30.12S

$$
WYZ014>020-022>026-101>103-262200-
CENTRAL WYOMING

CITY           SKY/WX    TMP DP  RH WIND       PRES   REMARKS
BIG PINEY      FAIR      54  26  34 N23G33    30.29S
PINEDALE       FAIR      50  30  46 W24G32    30.27S
DUBOIS         FAIR      50  27  40 NW24G30   30.25F
LANDER         FAIR      64  27  24 N17G25    30.12F
RIVERTON       FAIR      58  24  27 S5        30.15F
CASPER         CLOUDY    54  26  34 W15       30.15F
DOUGLAS        CLOUDY    52  27  38 NW10G25   30.13F

$$
WYZ021-027>030-104>119-262200-
SOUTHERN WYOMING

CITY           SKY/WX    TMP DP  RH WIND       PRES   REMARKS
EVANSTON       FAIR      56  27  32 W9G16     30.34F
KEMMERER       FAIR      46  28  49 W20G29    30.35S
FORT BRIDGER   FAIR      58  28  31 NW22      30.35F
ROCK SPRINGS   FAIR      54  24  31 W22G36    30.26F
DIXON          FAIR      55  24  30 W12G17    30.28F
RAWLINS        FAIR      55  23  28 W24G39    30.21F
SARATOGA       FAIR      54  23  30 W22G32    30.22F
LARAMIE        CLOUDY    47  22  37 NW25G37   30.17F
CHEYENNE       FAIR      53  22  29 NW28G41   30.13F
TORRINGTON     CLOUDY    52  27  38 N13G25    30.11F
PINE BLUFFS    CLOUDY    55  23  28 NW25G35   30.12F

$$


USA.gov is the U.S. government's official web portal to all federal, state and local government web resources and services.